This is the latest recevied weather packets stored in our database for station/object FREPRT-WX. If no packets are shown the sender has not sent any weather packets the latest 10 day(s).
| Time | Temp. | Humidity | Pressure | Rain* | Wind** | Luminosity | Snow |
|---|---|---|---|---|---|---|---|
| 1777989679 | 10.56° C | 54% | 977.9 hPa | 0 mm | - | - | - |
| 1777988740 | 10.56° C | 63% | 977.7 hPa | 0 mm | - | - | - |
| 1777987860 | 10.56° C | 63% | 977.7 hPa | 0 mm | - | - | - |
| 1777986940 | 10.56° C | 63% | 977.6 hPa | 0 mm | - | - | - |
| 1777986072 | 11.11° C | 63% | 977.7 hPa | 0 mm | - | - | - |
| 1777985139 | 10.56° C | 70% | 976.9 hPa | 0 mm | - | - | - |
| 1777984259 | 10.56° C | 69% | 975.4 hPa | 0 mm | - | - | - |
| 1777983340 | 10.56° C | 69% | 975.4 hPa | 0 mm | - | - | - |
| 1777982483 | 10° C | 69% | 975.4 hPa | 0 mm | - | - | - |
| 1777981540 | 10° C | 68% | 975.3 hPa | 0 mm | - | - | - |
| 1777980657 | 10° C | 66% | 973.8 hPa | 0 mm | - | - | - |
| 1777979740 | 10° C | 66% | 973.8 hPa | 0 mm | - | - | - |
| 1777978876 | 10° C | 66% | 973.8 hPa | 0 mm | - | - | - |
| 1777977939 | 10° C | 57% | 972.3 hPa | 0 mm | - | - | - |
| 1777977058 | 10° C | 57% | 972.3 hPa | 0 mm | - | - | - |
| 1777976139 | 10° C | 57% | 972.3 hPa | 0 mm | - | - | - |
| 1777975275 | 10.56° C | 57% | 972.3 hPa | 0 mm | - | - | - |
| 1777974339 | 10.56° C | 68% | 972.6 hPa | 0 mm | - | - | - |
| 1777973462 | 10.56° C | 65% | 972.3 hPa | 0 mm | - | - | - |
| 1777972540 | 10.56° C | 65% | 972.2 hPa | 0 mm | - | - | - |
| 1777971678 | 10.56° C | 65% | 972.2 hPa | 0 mm | - | - | - |
| 1777970738 | 11.67° C | 75% | 972.7 hPa | 0 mm | - | - | - |
| 1777969858 | 11.11° C | 75% | 972 hPa | 0 mm | - | - | - |
| 1777968939 | 11.67° C | 75% | 972 hPa | 0 mm | - | - | - |
| 1777968070 | 12.22° C | 67% | 972.2 hPa | 0 mm | - | - | - |
* Rain latest hour (hover to see other rain measurements)
** Current wind speed in m/s (hover to see current wind gust speed)